Regional Weather Roundup
Issued by NWS Sterling, VA

Home | Current Version | Previous Version | Graphics & Text | Print | Product List | Glossary On
Versions: 1 2 3 4 5 6 7 8 9 10 11 12 13 14 15 16 17 18 19 20 21 22 23 24 25 26 27
000
ASUS41 KLWX 251811
RWRLWX

REGIONAL WEATHER ROUNDUP
NATIONAL WEATHER SERVICE BALTIMORE MD/WASHINGTON DC
200 PM EDT TUE APR 25 2017

Note: "FAIR" indicates few or no clouds below 12,000 feet
with no significant weather and/or obstructions to visibility.
 TC=TEMPERATURE CELSIUS

 * =Non NWS site. Station does not report precipitation (e.g. rain,
    snow, etc.), thunder, or fog.

DCZ001-MDZ009-015-VAZ040>042-051-053>054-251900-
WASHINGTON METRO

CITY           SKY/WX    TMP DP  RH WIND       PRES   REMARKS
WASHINGTON NAT LGT RAIN  59  58  96 NE20G26   29.78S FOG
DULLES         LGT RAIN  58  56  93 NE14      29.79F FOG
ANDREWS AFB    DRIZZLE   57  57 100 NE16G23   29.75F FOG
FT BELVOIR     DRIZZLE   59  56  91 NE6       29.76F
QUANTICO       CLOUDY    60  59  96 NE20G26   29.76S FOG
COLLEGE PARK*  CLOUDY    57  55  93 NE10      29.78S
LEESBURG*      RAIN      57  57 100 NE8       29.81F
MANASSAS*      LGT RAIN  59  57  93 NE9       29.78S FOG

$$

MDZ006>007-011-014-251900-
BALTIMORE METRO

CITY           SKY/WX    TMP DP  RH WIND       PRES   REMARKS
BWI AIRPORT    LGT RAIN  57  57 100 NE16G23   29.80S FOG
MD SCIENCE CTR   N/A     58  55  90 MISG      29.79F
MARTIN STATE   HVY RAIN  57  57 100 N17       29.82F
ANNAPOLIS      LGT RAIN  59  57  93 NE6       29.79S FOG
FORT MEADE*    CLOUDY    55  54  94 NE10G16   29.82R

$$

MDZ012-015-019>023-251900-
MARYLAND EASTERN SHORE

CITY           SKY/WX    TMP DP  RH WIND       PRES   REMARKS
OCEAN CITY     RAIN      57  57 100 E10       29.74F FOG
SALISBURY      LGT RAIN  62  62 100 E9        29.73F
BAY BRIDGE AP* LGT RAIN  59  57  94 NE12      29.78F FOG
CAMBRIDGE*     PTSUNNY   63  61  94 E10       29.74F
EASTON*        CLOUDY    63  57  82 E16G25    29.80S

$$

MDZ017>025-251900-
SOUTHERN MARYLAND

CITY           SKY/WX    TMP DP  RH WIND       PRES   REMARKS
PATUXENT RIVER DRIZZLE   61  61 100 NE17      29.71F
ST INIGOES     CLOUDY    62  61  96 NE14G24   29.70F
LEONARDTOWN*   CLOUDY    59  59 100 NE6       29.73F

$$

MDZ003>005-251900-
NORTH CENTRAL MARYLAND

CITY           SKY/WX    TMP DP  RH WIND       PRES   REMARKS
FREDERICK*     LGT RAIN  57  57 100 NE13      29.85F
HAGERSTOWN APT RAIN      55  53  93 N17       29.85F FOG
WESTMINSTER*   RAIN      55  55 100 NE14G23   29.83F

$$

MDZ501>502-251900-
WESTERN MARYLAND

CITY           SKY/WX    TMP DP  RH WIND       PRES   REMARKS
OAKLAND*       CLOUDY    50  50 100 E20G30    29.83F FOG
CUMBERLAND*    PTSUNNY   55  54  94 N6        29.90F

$$

VAZ025>031-251900-
SHENANDOAH VALLEY

CITY           SKY/WX    TMP DP  RH WIND       PRES   REMARKS
WINCHESTER*    RAIN      52  52 100 N9G16     29.82F
FRONT ROYAL*   CLOUDY    54  54 100 N8G17     29.80F
LURAY*         LGT RAIN  54  54 100 NE13      29.79F
NEW MARKET*    CLOUDY    54  53  95 NE9G16    29.80F
STAUNTON*      DRIZZLE   53  52  97 NE15      29.80S
WAYNESBORO*    CLOUDY    52  52 100 N9G17     29.77F

$$

WVZ021-048>050-054>055-251900-
EASTERN WEST VIRGINIA PANHANDLE

CITY           SKY/WX    TMP DP  RH WIND       PRES   REMARKS
MARTINSBURG    LGT RAIN  54  52  93 N12G21    29.82F FOG
PETERSBURG*    LGT RAIN  55  53  94 N5        29.85F

$$

VAZ036>039-050-251900-
CENTRAL FOOTHILLS

CITY           SKY/WX    TMP DP  RH WIND       PRES   REMARKS
CHARLOTTESVILL LGT RAIN  60  56  86 NE15G23   29.74R FOG
CULPEPER*      DRIZZLE   60  59  98 N14       29.77F
ORANGE*        LGT RAIN  59  55  88 NE12G22   29.74F
GORDONSVILLE*  CLOUDY    58  58  98 NE13G21   29.73S FOG
WARRENTON*     LGT RAIN  60  56  87 NE13G18   29.77S

$$

VAZ055>057-251900-
NORTH AND CENTRAL PIEDMONT

CITY           SKY/WX    TMP DP  RH WIND       PRES   REMARKS
FREDERICKSBRG* CLOUDY    60  60 100 NE12      29.72F
STAFFORD*      LGT RAIN  58  58 100 NE13G21   29.78F

$$

NCZ024-NYZ072-PAZ021-071-VAZ022-071-251900-
OTHER REGIONAL OBSERVATIONS

CITY           SKY/WX    TMP DP  RH WIND       PRES   REMARKS
NEW YORK CITY  CLOUDY    54  51  90 NE12G23   30.04F
PHILADELPHIA   LGT RAIN  57  54  89 NE17G28   29.90F FOG
PITTSBURGH     CLOUDY    64  54  69 NE7       29.85F
ROANOKE        CLOUDY    59  56  89 N12       29.76R
RICHMOND       CLOUDY    65  64  97 NE8       29.66F FOG
RALEIGH        PTSUNNY   66  59  78 VRB7      29.64S

$$

ANZ530>537-251900-
MARINE OBSERVATIONS

STATION/POSITION TIME  TEMP    WIND        PRES
                       AIR SEA DIR/SP/G
                 (UTC) (F)     (DEG/KT/KT) (MB)
THOMAS PT LIGHT  1800   58 56   50/ 16/ 18   N/A
BALT KEY BRIDGE  1748   57      50/ 20/ 24 1008.2F
COVE POINT       1748   60      90/ 15/ 18 1007.3F
LEWISETTA        1742   62 60   80/ 13/ 15 1005.2F
SOLOMONS ISLAND  1742   61 60   50/ 13/ 19   N/A
PINEY POINT      1748           70/ 13/ 15   N/A

$$





USA.gov is the U.S. government's official web portal to all federal, state and local government web resources and services.